Regional Weather Roundup
Issued by NWS State College, PA

Home | Current Version | Previous Version | Graphics & Text | Print | Product List | Glossary On
Versions: 1 2 3 4 5 6 7 8 9 10 11 12 13 14 15 16 17 18 19 20 21 22 23 24 25 26 27 28 29 30 31 32 33 34 35 36 37 38 39 40 41 42 43 44 45 46 47 48 49 50
000
ASUS41 KCTP 231310
RWRCTP
NATIONAL WEATHER SERVICE STATE COLLEGE PA
900 AM EDT SAT SEP 23 2017

Note: "fair" indicates few or no clouds below 12,000 feet with no
significant weather and/or obstructions to visibility.

* = STATION THAT DOES NOT REPORT PRECIPITATION /E.G. RAIN...SNOW...ETC/
    THUNDER OR FOG.

PAZ002>004-007>009-013>016-020>023-029>032-231400-
WESTERN PENNSYLVANIA

CITY           SKY/WX    TMP DP  RH WIND       PRES   REMARKS
ERIE           SUNNY     69  57  65 N5        30.16R
MEADVILLE      SUNNY     65  60  84 CALM      30.19R
FRANKLIN*      SUNNY     62  57  83 E3        30.19S
NEW CASTLE     FAIR      61  59  93 CALM      30.17S
BEAVER COUNTY  SUNNY     66  55  68 CALM      30.17
BUTLER*        SUNNY     62  57  83 NE5       30.18R
PITTSBURGH INT MOSUNNY   64  58  80 CALM      30.16R
PITTSBURGH     SUNNY     65  57  75 CALM      30.15R
INDIANA*       SUNNY     63  57  82 CALM      30.20R
LATROBE        SUNNY     57  57 100 CALM      30.17R
WASHINGTON CO* SUNNY     59  57  94 CALM      30.16R
$$

PAZ004>006-010>012-017>019-024>028-033>037-041-042-045-046-049>053-231400-
CENTRAL PENNSYLVANIA

CITY           SKY/WX    TMP DP  RH WIND       PRES   REMARKS
BRADFORD       SUNNY     61  57  87 CALM      30.21R
DUBOIS         SUNNY     63  53  70 CALM      30.18R
CLEARFIELD     SUNNY     58  55  90 CALM      30.19R
JOHNSTOWN      SUNNY     67  54  63 CALM      30.19R
ALTOONA        SUNNY     62  57  83 CALM      30.18R
STATE COLLEGE  SUNNY     59  55  88 NW6       30.17R
WILLIAMSPORT   SUNNY     63  58  83 CALM      30.13S
SELINSGROVE    SUNNY     60  57  89 N3        30.16R
FT INDIANTOWN  SUNNY     70  57  64 CALM      30.11R
CAPITAL CITY   SUNNY     67  56  67 W5        30.12R
HARRISBURG     MOSUNNY   68  58  70 NW10      30.11R
YORK           SUNNY     66  60  81 W5        30.12R
$$

PAZ038>040-043-044-047-048-054-055-060>062-067>071-231400-
EASTERN PENNSYLVANIA

CITY           SKY/WX    TMP DP  RH WIND       PRES   REMARKS
SCRANTON       SUNNY     61  56  83 W3        30.16R
MOUNT POCONO   SUNNY     63  55  75 NW6       30.16R
ALLENTOWN      SUNNY     69  56  62 CALM      30.09R
QUAKERTOWN*    SUNNY     70  55  60 N5        30.09R
READING        SUNNY     67  58  72 CALM      30.09R
LANCASTER      SUNNY     66  59  78 W7        30.11R
COATESVILLE    SUNNY     70  55  60 NW9       30.11R
POTTSTOWN      SUNNY     68  57  68 NW3       30.10R
BLUE BELL      SUNNY     70  55  60 N7        30.09R
DOYLESTOWN     SUNNY     71  55  56 N8        30.07R
WILLOW GROVE   NOT AVBL
NORTH PHILA    SUNNY     74  55  51 N9        30.07R
PHILADELPHIA   MOSUNNY   75  53  46 N9        30.05R
$$




USA.gov is the U.S. government's official web portal to all federal, state and local government web resources and services.